Theta_e
314 315 315 316 315 312 310 310 310 312 316 317 316 316 317 317 317 317 317 317 317 317 317 316 315 316 317 327 325 327 322 321 324 327 329 333 333 336 340 341 341 347 348 346 345 345 345
313 313 313 313 312 310 310 310 310 310 315 317 317 316 316 317 317 317 317 317 317 318 317 317 315 316 318 327 325 325 325 327 326 327 327 331 333 336 337 340 340 341 346 346 344 344 343
312 312 312 311 310 309 309 309 309 309 312 317 317 315 316 316 317 317 317 317 317 318 318 317 316 315 323 326 324 324 324 325 327 330 330 334 333 334 336 340 339 340 343 343 344 343 344
311 311 311 309 309 309 309 309 309 309 310 315 317 315 315 316 317 317 317 317 317 317 318 317 316 315 326 324 324 324 324 325 329 328 331 332 333 332 334 337 338 339 340 344 344 344 344
310 310 309 308 308 308 309 309 309 309 310 314 316 314 315 315 316 316 317 317 317 317 318 317 318 323 327 324 322 323 323 325 327 330 330 331 330 333 336 336 337 339 342 345 347 343 344
308 308 308 308 308 308 308 309 309 309 310 314 316 314 315 315 315 315 316 317 317 317 318 317 321 327 327 325 323 321 322 324 325 329 332 332 333 336 337 339 339 343 343 344 345 345 343
308 308 308 308 308 308 308 308 308 309 311 315 316 315 315 314 313 314 316 319 328 327 327 326 327 323 325 323 324 323 324 324 325 326 329 331 335 337 337 338 337 339 344 345 343 343 342
307 307 308 308 308 308 308 308 308 309 311 316 315 315 315 313 313 315 316 327 328 327 329 330 326 327 324 324 324 324 324 325 325 326 328 328 330 333 336 337 337 339 340 341 340 339 340
307 307 307 308 309 309 308 308 308 310 313 316 314 315 313 314 315 317 321 326 326 325 327 326 328 325 325 324 324 325 324 324 326 326 327 327 328 330 331 331 335 337 338 339 340 340 341
307 307 307 308 308 308 308 308 309 311 314 315 314 314 313 317 322 325 325 327 325 326 328 329 328 326 325 325 325 324 325 325 325 326 327 328 329 329 329 328 329 335 337 338 338 341 342
306 306 307 308 308 308 309 309 310 312 315 315 314 313 316 318 325 326 329 325 325 326 336 329 327 325 325 326 326 324 325 325 325 325 327 327 327 328 328 328 328 330 335 337 337 338 338
306 306 307 308 308 308 309 309 310 312 316 315 314 315 320 322 320 322 324 325 325 328 330 327 327 327 327 326 326 326 325 325 325 326 326 327 328 329 329 329 328 330 332 335 338 339 340
305 305 306 307 308 308 309 309 310 312 316 315 314 321 321 320 328 325 324 326 330 330 329 328 328 327 326 327 326 327 326 326 326 326 326 327 327 328 329 328 329 328 330 334 338 340 338
308 307 306 306 307 308 308 309 310 313 315 314 321 322 322 320 325 324 325 328 333 330 327 330 329 329 328 327 328 326 327 326 326 327 327 327 327 327 328 327 327 328 329 334 338 337 338
308 308 308 307 307 307 308 308 309 313 315 316 324 325 323 328 320 324 327 329 329 329 329 328 329 328 329 329 329 328 327 327 326 326 327 328 328 330 329 328 327 327 329 330 330 332 335
307 307 308 309 308 308 308 308 309 312 315 319 325 330 328 326 325 325 328 329 331 328 327 328 328 328 328 329 328 329 329 327 327 328 328 327 328 329 329 328 328 327 328 328 328 331 334
308 307 307 308 309 309 309 308 309 312 315 322 326 333 328 325 325 326 330 330 330 327 325 325 326 327 330 330 331 329 327 328 328 328 329 328 328 328 329 328 327 327 326 327 328 329 329
308 309 308 307 308 308 309 309 309 311 316 324 329 334 328 325 326 327 329 331 327 328 326 325 324 327 329 330 330 330 330 328 328 328 327 328 328 328 327 329 329 328 328 327 329 329 330
307 307 308 309 308 308 308 309 310 310 316 322 332 334 330 327 331 333 332 330 329 328 328 328 327 325 326 328 330 330 332 330 329 328 327 328 328 327 327 328 329 328 328 328 328 328 335
310 308 307 307 309 309 309 308 310 310 314 322 330 334 332 328 326 329 332 332 333 330 329 327 330 329 327 329 329 331 334 331 331 331 330 332 328 328 326 328 329 328 328 328 327 329 329
312 310 308 307 307 307 308 309 309 311 311 321 329 333 332 334 333 332 331 331 331 331 331 330 332 330 330 331 331 331 331 332 335 336 336 332 329 327 327 328 328 328 329 328 327 327 329
311 310 309 307 306 307 307 308 309 310 312 320 324 327 324 327 326 327 327 328 329 329 331 331 334 333 332 330 331 331 332 336 340 338 337 335 334 328 327 327 328 327 328 328 329 328 328
317 314 310 308 307 306 306 307 307 309 313 321 322 321 323 324 325 327 329 328 328 329 329 330 332 333 337 332 331 333 334 337 339 337 335 335 336 339 330 328 328 328 327 328 329 330 329
318 318 318 311 307 306 306 307 307 307 308 312 319 317 320 325 326 327 326 325 326 325 326 326 329 333 332 332 332 331 332 333 333 332 332 333 333 338 339 337 333 329 329 329 328 330 330
317 318 318 319 313 309 307 307 307 306 306 308 318 317 319 324 324 325 325 326 325 324 325 324 322 324 330 333 333 331 331 332 332 335 332 332 335 340 337 338 339 337 330 329 329 329 330
314 317 318 319 319 316 312 309 309 310 310 310 317 317 315 318 322 320 322 322 325 326 326 325 323 322 321 329 329 334 335 332 332 333 333 333 334 338 337 339 337 336 335 333 331 332 331
312 313 314 316 318 318 318 316 313 311 311 310 316 319 316 317 317 320 322 322 321 324 327 326 325 327 324 326 330 335 335 335 338 336 336 332 334 336 336 333 332 334 332 334 334 334 331
311 311 312 312 314 316 317 318 318 318 315 312 313 317 318 317 317 317 318 319 319 319 323 324 326 326 329 331 332 332 333 335 335 334 333 336 335 339 340 338 338 334 336 341 338 337 331
311 311 311 311 311 312 315 317 318 317 316 314 316 318 318 317 317 317 317 317 317 318 319 321 323 325 327 332 331 333 336 338 336 339 333 336 338 342 342 341 337 334 334 331 337 344 346
Wind_Speed
15 15 14 14 13 12 12 11 10 9 8 8 9 9 8 8 8 8 9 8 8 8 7 7 7 7 5 8 15 10 8 11 13 14 16 14 16 16 15 2 10 11 7 17 5 3 11
15 14 14 13 13 13 12 12 11 9 9 8 9 9 9 9 9 8 8 8 8 8 8 6 6 6 5 12 3 5 2 7 11 14 16 15 16 16 19 6 8 4 15 24 4 9 12
15 14 13 13 13 12 12 11 11 10 9 8 9 9 9 9 9 10 9 9 8 8 7 7 6 6 10 20 6 6 8 10 11 15 17 16 17 19 16 15 12 9 7 13 13 9 3
14 14 13 13 12 12 12 11 11 10 9 9 9 10 10 10 10 10 10 9 8 7 7 6 5 5 10 5 17 15 12 12 12 13 16 17 14 14 22 20 8 14 14 14 10 6 19
13 13 13 13 13 12 11 11 11 10 9 9 10 10 11 11 10 10 10 9 8 7 6 4 2 4 15 10 15 15 15 15 15 14 14 14 9 17 19 15 11 15 14 14 9 13 17
13 13 13 13 12 12 12 11 11 9 8 8 9 10 10 10 10 10 8 8 7 7 6 6 8 8 19 14 11 16 17 15 15 17 17 15 15 14 15 15 13 8 12 15 6 9 13
12 12 13 13 13 13 12 12 11 9 8 8 8 9 9 9 9 9 6 5 5 4 13 16 9 14 3 7 5 14 16 16 17 18 17 21 14 17 20 19 19 15 3 14 13 10 6
12 12 13 14 14 13 13 12 11 10 9 8 9 8 9 8 7 6 1 2 5 6 11 21 21 18 7 5 10 16 18 21 20 17 17 17 19 20 21 21 20 20 18 12 9 9 3
12 13 14 14 14 13 13 12 11 10 9 9 9 9 9 7 5 3 3 9 6 9 8 17 26 23 16 14 15 15 22 23 17 19 20 19 20 21 19 18 20 20 19 8 14 3 11
12 13 14 14 13 13 12 11 10 9 9 9 9 9 8 5 1 2 4 4 6 6 6 12 15 15 20 17 17 20 21 22 21 21 21 20 21 21 14 15 18 20 18 12 16 7 10
12 13 13 14 13 12 12 11 10 9 9 10 10 9 8 5 2 2 3 5 6 3 5 14 13 7 13 15 2 21 19 20 22 21 19 21 22 21 19 14 16 19 13 17 13 13 12
12 12 13 13 13 13 12 11 10 10 10 11 11 10 6 2 4 6 6 6 3 6 10 9 11 11 15 19 19 10 20 18 22 20 19 20 26 22 17 17 17 14 18 19 15 11 11
13 13 13 13 13 13 12 11 10 10 10 11 11 8 5 6 4 3 4 4 6 9 4 10 12 14 15 16 18 12 15 16 16 14 18 20 20 21 18 17 15 17 17 12 14 12 12
13 13 14 14 14 14 13 12 11 10 10 11 9 5 5 7 4 5 3 7 8 9 13 8 3 11 16 17 17 19 16 15 20 21 14 17 16 19 20 16 18 19 19 14 13 15 16
13 13 14 14 14 14 14 13 11 10 10 9 5 2 4 4 6 5 9 9 9 8 8 4 7 9 12 14 15 16 19 17 18 20 21 16 18 18 23 20 19 21 19 18 21 22 15
14 14 14 13 14 14 14 13 12 10 10 6 2 6 4 6 7 5 8 15 19 6 6 7 11 16 15 16 13 15 14 17 20 19 21 20 18 18 11 21 20 20 19 16 12 17 20
14 14 13 13 13 13 14 14 12 10 9 4 6 7 6 7 7 9 9 14 5 6 5 7 13 17 12 16 6 10 18 14 15 17 18 19 17 18 14 14 16 16 17 20 18 15 15
14 13 13 13 12 12 13 13 13 10 6 2 7 5 8 8 9 12 11 12 8 9 11 8 12 14 16 17 9 13 18 8 6 15 17 18 12 15 23 16 19 18 21 22 14 18 15
15 14 14 13 13 13 13 13 13 11 7 6 7 4 6 9 7 9 13 6 10 9 12 9 10 12 15 15 15 12 18 17 2 3 7 14 12 14 20 18 18 13 19 21 19 21 16
16 15 14 14 13 13 13 12 12 10 7 6 7 3 8 12 16 14 14 11 10 9 7 15 14 13 14 13 13 16 17 16 8 8 9 13 17 16 15 18 16 16 19 22 24 15 17
19 17 16 15 14 14 13 12 10 9 7 5 7 5 11 4 8 10 10 12 10 13 8 9 8 14 16 14 15 17 18 17 4 18 8 12 18 20 22 20 20 22 20 21 21 23 20
21 20 18 17 15 14 13 13 10 8 4 4 9 10 17 17 17 13 8 12 13 15 11 14 12 12 14 15 18 17 16 11 6 7 5 11 15 18 20 21 21 22 24 23 23 23 22
22 23 21 19 17 15 14 12 11 8 4 5 12 9 11 12 14 11 10 10 13 11 11 17 14 10 18 12 11 17 19 4 10 4 5 9 12 12 20 20 20 22 24 24 22 21 23
21 23 24 23 21 17 15 12 11 10 8 4 10 11 10 10 12 13 11 13 14 14 15 19 23 13 21 23 19 21 21 14 14 11 18 6 20 17 17 17 25 19 21 22 24 21 17
19 21 22 24 22 20 17 14 12 11 9 7 6 10 9 8 17 16 16 14 13 17 16 19 23 27 23 15 12 14 13 18 21 25 21 20 19 15 11 10 11 30 21 20 23 22 20
18 19 20 21 22 20 18 15 13 13 12 10 5 7 8 12 7 20 17 18 13 12 15 19 21 17 20 12 12 19 15 17 15 3 1 15 17 9 3 6 9 7 30 45 27 19 22
17 18 19 20 20 20 19 17 16 14 13 12 6 7 6 15 22 15 14 14 18 16 11 16 16 10 14 11 13 13 15 3 4 6 6 9 8 14 13 9 8 12 19 41 22 13 19
17 18 18 19 20 20 20 19 18 17 15 13 6 9 6 12 32 24 18 20 19 18 12 19 13 10 11 12 11 13 15 3 4 2 11 8 4 2 10 16 18 15 16 14 16 42 23
18 19 19 19 20 20 21 21 22 21 19 16 6 6 12 14 24 32 33 32 31 26 24 23 20 24 11 7 10 6 9 4 7 4 9 8 5 9 15 6 22 22 22 37 44 29 11
Wind_Direction
343 343 341 341 341 340 338 335 332 325 323 322 322 318 314 307 301 296 297 302 300 299 298 296 288 282 276 259 262 263 257 218 221 224 232 246 264 262 271 359 302 244 38 299 198 261 245
338 339 338 339 339 337 335 332 330 328 323 323 322 315 312 309 303 295 294 294 294 294 297 295 286 275 267 249 213 262 188 224 217 224 237 244 262 273 310 302 288 341 178 238 283 225 254
334 334 336 336 334 334 334 330 330 326 321 318 316 313 309 306 302 300 298 294 291 285 287 286 277 268 263 234 240 235 238 229 225 229 236 243 254 280 263 289 238 276 265 253 1 296 187
331 332 335 332 333 334 334 331 327 322 317 315 315 315 313 310 308 305 299 296 291 285 283 275 274 269 262 254 243 255 231 231 230 230 236 255 270 264 276 284 256 262 257 252 206 313 293
331 332 333 334 336 334 333 330 324 318 314 310 312 312 314 314 312 306 300 297 289 283 271 253 238 267 258 235 240 230 223 225 229 233 239 246 267 258 254 254 269 240 245 231 179 207 251
334 334 334 334 333 331 330 328 325 317 312 307 309 309 313 315 312 307 302 295 283 265 253 236 234 258 244 242 233 215 217 221 232 227 235 235 244 247 243 258 244 305 265 343 234 225 228
337 336 334 332 330 328 327 328 326 319 313 309 310 310 315 315 313 310 306 296 304 229 214 219 202 223 141 206 161 202 209 216 226 234 229 228 236 236 240 243 262 271 181 230 279 196 202
340 339 336 333 330 328 325 325 325 321 316 314 313 316 318 316 312 306 301 261 7 323 292 250 245 238 249 240 235 225 210 211 216 231 222 235 228 240 249 260 261 261 264 257 221 257 247
343 340 340 338 335 332 327 325 325 323 318 315 316 322 322 323 332 355 269 297 306 329 261 270 218 227 228 228 241 218 201 209 217 228 232 232 239 220 241 253 258 266 259 255 262 136 262
345 343 343 343 341 338 331 327 325 322 320 320 317 322 320 325 57 313 275 267 319 317 277 207 191 229 221 218 242 233 202 215 228 230 234 249 239 262 224 234 256 251 259 258 283 279 276
349 346 346 346 346 342 338 333 327 323 322 319 317 319 315 291 247 30 300 321 303 273 274 134 154 147 184 198 275 202 209 210 227 229 232 242 244 254 258 250 253 259 269 250 233 271 273
356 354 354 352 351 348 345 338 332 327 324 318 315 315 307 281 269 249 316 305 302 232 246 156 150 194 207 204 244 208 207 213 224 240 248 245 262 249 238 252 254 277 260 266 262 241 255
3 359 358 355 355 355 348 343 336 328 323 318 313 306 267 234 121 293 275 257 225 245 102 156 180 191 202 201 218 219 194 205 223 224 240 249 242 260 246 252 240 239 244 245 246 231 243
1 1 1 360 357 356 354 348 340 330 325 321 312 294 262 221 245 281 246 236 249 231 230 48 359 182 213 221 192 222 208 222 218 244 246 225 236 221 246 225 250 234 238 241 238 252 251
1 360 2 2 360 360 357 353 342 333 327 323 318 297 267 310 219 205 240 230 235 324 1 22 265 248 238 235 238 195 219 226 225 213 248 258 241 230 211 212 226 249 243 248 263 270 271
3 2 1 1 360 1 358 355 347 336 328 318 274 242 178 208 191 187 241 259 292 18 345 322 280 282 246 204 212 242 230 223 244 225 218 253 272 282 245 203 220 237 259 236 235 264 273
2 2 1 360 360 1 359 356 353 343 332 299 255 238 166 160 172 228 247 244 290 25 287 271 272 290 288 294 271 218 241 243 227 235 237 237 245 262 254 211 223 220 235 254 269 236 249
2 1 358 359 359 358 358 358 358 355 348 309 281 274 167 165 220 230 243 263 12 293 280 247 272 284 301 300 293 264 267 242 287 215 252 239 242 244 256 249 218 225 244 226 245 250 263
5 2 1 357 357 358 359 360 360 2 355 313 271 256 197 201 252 250 264 230 267 270 271 258 254 254 271 263 274 270 276 258 6 259 266 271 220 255 263 247 243 235 234 255 241 250 247
9 7 5 2 360 358 359 1 359 359 352 330 288 276 158 217 251 285 288 311 280 238 248 287 295 281 273 263 269 276 280 262 226 226 283 299 276 248 243 246 259 228 225 235 249 244 255
14 10 8 8 6 2 360 358 358 356 350 328 252 330 341 277 242 252 258 286 297 296 259 233 259 247 271 270 259 251 251 278 29 16 336 256 259 265 271 270 268 265 261 216 236 252 248
18 15 10 9 8 6 3 360 358 360 354 331 314 349 338 303 288 276 272 266 272 278 276 271 239 255 250 235 262 275 289 305 39 1 322 319 270 262 268 266 260 262 266 262 218 228 251
20 19 15 11 9 8 6 4 4 3 22 328 346 314 292 290 292 286 273 295 311 312 288 292 301 288 281 285 298 310 313 338 163 170 357 15 327 311 251 251 257 252 246 258 258 225 222
13 15 16 16 13 12 11 9 7 10 12 26 336 327 294 293 300 299 323 309 302 296 304 298 295 266 272 301 308 304 294 280 159 161 136 93 302 288 269 283 242 256 254 247 253 267 237
7 9 10 13 15 16 15 17 13 8 4 358 4 327 306 291 307 300 297 304 311 290 259 261 266 272 286 297 286 281 275 255 249 217 191 173 200 260 275 266 327 305 254 251 237 249 259
359 2 4 7 9 9 11 10 8 3 356 350 2 313 297 295 225 344 310 298 290 290 290 277 268 253 255 261 265 262 258 265 267 241 256 234 225 297 220 215 258 237 280 279 271 232 229
350 352 353 355 358 0 360 358 356 355 351 350 337 330 308 290 280 311 306 319 310 312 307 298 296 280 224 244 255 265 270 359 15 334 326 297 284 233 230 241 253 224 277 290 251 244 222
338 340 342 343 344 345 346 345 343 341 341 342 293 300 300 284 287 284 284 283 279 257 259 277 298 271 275 248 247 270 274 94 112 242 271 260 264 359 319 271 248 37 345 332 338 296 228
332 333 333 332 333 333 332 330 329 328 327 328 335 300 294 274 264 283 277 268 255 252 269 276 277 289 282 321 261 294 291 146 164 233 232 272 7 304 209 264 330 336 332 312 285 280 79